Date,TemperatureHighF,TemperatureAvgF,TemperatureLowF,DewpointHighF,DewpointAvgF,DewpointLowF,HumidityHigh,HumidityAvg,HumidityLow,PressureMaxIn,PressureMinIn,WindSpeedMaxMPH,WindSpeedAvgMPH,GustSpeedMaxMPH,PrecipitationSumIn
2014-1-1,65.3,63.1,60.4,65.1,58.3,51.8,100,85,70,30.15,29.94,17,5,17,0.12
2014-1-2,79.5,69.6,61.9,74.4,67.8,53.1,100,95,73,29.97,29.74,29,6,29,0.50
2014-1-3,62.1,51.3,45.3,54.0,42.9,37.5,75,73,71,30.15,29.88,28,8,30,10.21
2014-1-4,68.0,52.4,45.9,57.3,45.2,0.0,82,77,69,30.12,30.00,16,5,16,0.00
2014-1-5,82.9,69.6,59.5,71.3,63.5,57.4,100,82,68,29.97,29.88,10,2,10,0.00
2014-1-6,76.5,66.0,48.4,74.1,63.9,40.1,100,93,71,30.24,29.85,31,5,31,0.00
2014-1-7,52.5,43.6,35.6,43.8,35.9,28.8,76,74,72,30.30,30.18,17,7,25,0.00
2014-1-8,63.5,49.4,38.5,53.5,41.3,31.3,78,74,70,30.27,30.06,20,6,20,0.00
2014-1-9,73.2,65.1,57.6,70.0,61.7,51.5,100,89,77,30.18,30.00,15,6,15,0.00
2014-1-10,83.8,73.9,69.1,73.0,69.3,64.9,100,87,68,30.09,29.94,15,4,15,0.00
2014-1-11,80.2,72.2,65.7,73.1,70.0,65.1,100,93,74,29.97,29.82,26,6,26,2.28
2014-1-12,73.9,64.5,53.2,67.3,56.6,45.5,100,76,67,30.09,29.91,17,4,17,0.00
2014-1-13,79.7,65.6,52.3,69.8,59.5,46.9,97,81,69,30.03,29.82,19,4,19,0.21
2014-1-14,80.6,66.3,54.9,70.8,63.3,54.0,100,90,71,29.94,29.82,18,4,18,0.66
2014-1-15,62.2,54.2,47.5,60.1,50.9,46.4,100,89,73,29.94,29.85,27,2,27,0.00
2014-1-16,58.5,50.7,39.0,49.7,42.4,31.8,83,73,71,30.06,29.88,29,7,29,0.05
2014-1-17,60.1,46.8,38.1,56.8,42.5,31.6,93,85,71,30.06,29.94,13,1,13,2.99
2014-1-18,60.4,52.8,40.6,58.8,45.0,33.3,96,75,71,30.15,29.94,14,5,15,2.99
2014-1-19,70.0,56.1,38.5,59.0,48.5,32.1,90,76,68,30.09,29.97,11,2,13,2.99
2014-1-20,75.7,61.2,48.9,63.8,55.9,48.4,100,84,67,30.03,29.88,12,2,12,2.99
2014-1-21,74.7,66.3,57.0,67.1,59.2,47.7,100,78,70,29.85,29.71,29,7,29,2.99
2014-1-22,57.2,51.5,40.3,47.7,43.0,32.8,75,72,71,30.03,29.82,20,7,20,2.99
2014-1-23,67.5,57.3,48.2,57.0,48.0,40.0,73,71,69,30.21,30.06,17,4,17,2.99
2014-1-24,63.9,51.8,43.9,53.7,43.2,36.1,74,72,70,30.30,30.12,18,5,18,2.99
2014-1-25,70.3,56.9,47.7,59.3,48.8,39.4,90,74,68,30.15,29.88,10,2,10,2.99
2014-1-26,70.2,62.9,59.2,63.7,58.5,52.8,100,86,68,29.94,29.82,10,2,10,2.99
2014-1-27,73.4,66.8,62.4,70.5,64.2,60.0,100,92,70,29.91,29.79,13,2,13,2.99
2014-1-28,77.9,66.9,59.7,70.8,63.9,59.5,100,91,69,29.94,29.82,19,4,19,2.99
2014-1-29,64.4,55.0,48.2,64.2,53.2,46.9,100,94,78,30.06,29.85,17,5,17,2.99
2014-1-30,53.2,50.1,46.6,52.9,49.3,46.6,100,97,90,30.06,29.94,14,5,14,2.99
2014-1-31,62.2,56.8,52.3,62.2,56.7,50.8,100,100,92,29.97,29.88,12,4,13,0.00
2014-2-1,83.7,72.3,62.1,77.6,68.1,62.1,100,88,68,30.09,29.91,16,2,16,0.00
2014-2-2,85.8,72.1,63.9,76.5,67.1,62.5,100,86,67,30.09,30.00,10,2,12,0.00
2014-2-3,84.2,71.9,63.9,75.0,68.0,63.7,100,89,67,30.09,29.94,16,2,16,0.00
2014-2-4,88.0,74.0,66.6,75.3,68.8,65.4,100,85,67,30.03,29.88,14,2,14,0.00
2014-2-5,79.2,72.8,68.7,75.2,70.1,67.7,100,92,75,29.97,29.88,24,4,24,0.00
2014-2-6,70.3,64.3,55.4,68.7,58.4,49.7,100,81,73,30.06,29.94,20,5,20,0.00
2014-2-7,61.7,57.7,53.6,59.9,54.2,47.9,100,88,75,30.06,29.97,15,6,15,0.17
2014-2-8,66.4,60.7,58.1,63.9,59.0,0.0,100,94,83,30.06,29.94,15,4,15,0.00
2014-2-9,77.0,63.6,56.8,65.2,57.3,49.6,100,81,67,30.06,29.88,16,4,16,0.17
2014-2-10,81.5,67.4,51.3,69.8,58.6,48.6,100,74,66,30.00,29.91,10,3,10,0.00
2014-2-11,77.5,64.6,54.9,66.6,56.9,49.8,91,77,67,29.97,29.88,12,2,12,0.00
2014-2-12,74.7,63.7,54.9,65.8,59.8,50.4,100,88,70,29.94,29.59,21,5,21,1.16
2014-2-13,67.1,62.1,57.2,67.1,55.8,50.4,100,80,70,29.79,29.62,28,11,28,0.00
2014-2-14,58.8,58.2,57.7,52.3,50.8,49.2,79,76,73,29.85,29.82,10,4,10,0.00
2014-2-15,68.0,61.8,50.4,60.8,53.5,42.0,88,74,69,30.00,29.76,28,7,28,0.00
2014-2-16,74.7,56.2,43.0,62.8,49.0,39.0,96,78,67,30.06,29.94,12,2,12,1.12
2014-2-17,84.7,62.6,48.9,71.0,55.3,43.5,100,78,65,30.09,30.00,13,2,13,1.12
2014-2-18,80.2,69.6,53.4,69.2,59.9,46.0,88,72,66,30.09,30.00,14,3,14,0.00
2014-2-19,82.8,69.8,60.1,71.1,62.2,55.4,91,77,67,30.06,29.94,11,3,14,0.00
2014-2-20,86.0,72.7,59.2,73.6,65.0,56.9,100,78,67,30.06,29.94,23,3,23,0.00
2014-2-21,77.4,73.2,70.3,72.4,66.3,63.0,100,80,70,29.94,29.85,22,3,22,1.12
2014-2-22,81.5,72.5,68.2,78.1,69.9,64.7,100,92,68,29.97,29.88,6,2,8,1.33
2014-2-23,81.1,72.6,68.7,78.4,68.7,65.4,100,88,69,30.00,29.88,17,3,17,1.33
2014-2-24,70.3,68.0,66.7,65.4,64.5,63.7,93,89,81,29.94,29.88,5,0,5,0.00
2014-2-25,83.1,70.5,63.0,72.5,65.8,60.6,100,86,68,29.94,29.82,15,3,15,0.00
2014-2-26,77.7,67.9,61.7,71.1,64.4,60.1,100,89,74,29.85,29.62,20,3,20,1.70
2014-2-27,66.6,59.8,52.9,66.6,53.0,44.1,100,79,70,29.85,29.65,19,5,19,0.00
2014-2-28,74.1,57.7,48.4,62.5,48.8,40.3,84,72,67,29.97,29.79,15,3,16,0.00
2014-3-1,81.7,61.1,50.4,69.3,52.7,43.1,91,74,66,30.09,29.91,14,2,14,0.00
2014-3-2,87.3,68.0,56.5,74.8,59.9,48.1,99,76,67,30.06,29.88,14,3,14,0.00
2014-3-3,80.8,70.1,60.4,70.3,63.9,55.9,100,82,69,29.94,29.85,20,3,20,0.00
2014-3-4,82.0,71.4,65.7,70.4,64.9,59.9,97,81,68,29.91,29.82,13,4,13,0.00
2014-3-5,86.5,71.5,65.1,73.6,64.0,59.8,94,78,67,29.91,29.82,11,3,11,1.70
2014-3-6,72.1,67.9,65.7,68.2,64.5,61.4,100,89,75,29.85,29.59,13,5,15,1.16
2014-3-7,68.4,61.1,52.3,68.4,53.2,43.6,100,76,69,29.94,29.65,20,8,21,0.00
2014-3-8,77.7,52.3,44.8,65.4,45.4,39.8,90,78,67,30.03,29.88,14,2,14,2.86
2014-3-9,82.6,66.0,54.5,69.7,58.8,51.7,100,79,66,30.09,29.97,15,3,15,0.00
2014-3-10,77.4,63.8,56.8,64.7,56.9,52.3,95,79,67,30.03,29.85,13,2,13,0.00
2014-3-11,81.5,67.9,55.9,69.1,61.1,52.5,100,79,66,29.91,29.71,17,3,17,0.00
2014-3-12,79.7,72.7,68.2,70.8,66.1,59.8,94,80,69,29.79,29.65,19,7,19,0.25
2014-3-13,70.3,61.5,53.8,60.5,52.6,45.0,77,72,68,30.09,29.76,25,10,25,1.99
2014-3-14,82.2,63.5,47.7,70.4,53.4,0.0,100,70,66,30.12,29.94,17,4,17,0.00
2014-3-15,84.4,68.7,56.5,72.3,59.5,50.6,88,73,66,30.03,29.88,17,2,17,3.11
2014-3-16,81.3,71.6,63.0,69.4,62.0,53.8,80,72,68,29.91,29.62,35,8,35,0.00
2014-3-17,75.6,72.8,69.3,74.1,69.2,63.4,100,89,70,29.65,29.50,37,9,37,1.00
2014-3-18,76.8,69.0,58.1,72.0,59.6,48.8,100,73,67,29.91,29.53,17,5,17,0.04
2014-3-19,81.7,65.1,52.7,69.3,56.7,48.0,93,75,67,30.00,29.88,18,3,18,0.00
2014-3-20,82.4,68.8,58.8,70.8,60.1,50.7,88,74,67,29.97,29.88,16,5,16,0.00
2014-3-21,90.9,74.2,59.9,77.2,65.4,54.6,98,75,66,29.97,29.85,15,3,15,0.00
2014-3-22,84.0,72.6,65.5,72.2,64.1,59.0,100,75,68,29.94,29.82,16,3,16,0.00
2014-3-23,82.6,73.8,68.2,70.8,66.2,61.2,86,77,68,29.94,29.82,16,3,16,0.00
2014-3-24,74.3,69.3,66.6,72.5,66.6,63.2,100,91,76,29.97,29.79,12,2,12,0.70
2014-3-25,74.1,69.2,66.6,72.2,66.7,60.2,100,93,70,29.85,29.71,22,6,22,0.50
2014-3-26,68.9,59.0,47.8,58.3,49.5,39.6,73,71,69,30.15,29.97,18,6,18,0.00
2014-3-27,69.4,62.6,55.6,58.8,52.7,46.3,72,70,69,30.15,30.00,24,5,24,0.00
2014-3-28,80.1,72.1,65.5,69.0,62.6,56.2,81,72,69,30.03,29.82,31,5,31,5.35
2014-3-29,78.8,72.3,67.5,74.5,68.3,61.4,100,88,75,29.91,29.74,6,0,6,0.29
2014-3-30,72.9,65.0,56.8,62.8,55.8,47.5,87,72,68,30.00,29.82,0,0,0,0.00
2014-3-31,89.4,68.0,53.1,77.0,59.3,46.5,95,75,65,30.03,29.94,0,0,0,0.00
2014-4-1,89.6,66.2,52.7,76.8,57.4,46.6,91,74,66,30.03,29.94,0,0,0,5.64
2014-4-2,84.2,70.5,60.1,72.2,62.2,55.6,90,76,67,30.06,29.97,0,0,0,5.64
2014-4-3,83.3,71.6,61.5,71.1,63.5,56.7,98,76,67,30.03,29.91,17,3,17,0.00
2014-4-4,84.7,73.6,64.6,72.6,65.9,59.5,100,78,67,29.94,29.82,11,6,11,0.79
2014-4-5,88.7,75.5,65.1,79.3,68.5,63.1,100,80,67,29.91,29.79,11,11,11,6.43
2014-4-6,85.5,74.6,67.8,73.3,67.1,62.0,100,78,67,29.91,29.76,26,5,26,6.43
2014-4-7,85.6,77.7,70.5,72.9,69.2,65.1,87,75,67,29.79,29.68,34,8,34,0.00
2014-4-8,77.9,73.1,67.8,76.5,66.2,57.3,100,80,69,29.79,29.59,29,8,29,0.25
2014-4-9,73.4,67.2,59.0,62.5,56.8,49.6,73,69,67,30.03,29.76,29,8,29,0.00
2014-4-10,87.3,63.7,57.0,74.8,56.6,49.3,91,78,66,30.15,30.00,15,1,15,3.57
2014-4-11,91.2,73.8,57.9,78.3,62.9,48.6,77,69,66,30.09,29.94,11,3,13,0.00
2014-4-12,91.8,79.2,68.9,78.8,68.2,60.5,81,69,66,30.03,29.91,13,4,13,0.00
2014-4-13,91.9,77.5,66.4,78.1,67.0,58.8,84,70,66,29.97,29.82,20,5,20,0.00
2014-4-14,87.1,80.3,73.6,74.3,69.8,63.2,84,70,67,29.85,29.71,18,5,18,0.00
2014-4-15,82.8,75.2,65.5,74.1,68.7,56.2,89,80,70,29.82,29.68,32,8,32,0.04
2014-4-16,81.7,72.7,63.3,70.1,62.0,54.2,72,69,67,29.97,29.82,19,7,19,0.00
2014-4-17,88.0,73.0,64.9,75.5,63.4,55.9,86,72,67,30.06,29.91,24,8,24,0.21
2014-4-18,79.0,72.1,69.4,70.9,67.6,63.1,100,86,74,29.97,29.76,19,4,19,0.41
2014-4-19,73.4,69.2,64.6,72.5,61.9,56.0,100,78,69,29.85,29.71,21,8,21,0.00
2014-4-20,78.6,68.7,62.2,67.6,61.5,56.5,94,79,67,29.94,29.82,14,4,14,0.00
2014-4-21,81.5,70.0,64.0,69.3,60.2,54.8,79,71,67,29.97,29.82,12,4,12,0.00
2014-4-22,83.7,70.0,61.0,71.3,61.6,55.3,89,75,67,29.85,29.74,15,3,15,0.00
2014-4-23,81.3,73.1,64.0,69.6,64.2,57.4,86,74,68,29.85,29.71,16,4,16,0.00
2014-4-24,86.2,74.8,64.0,73.9,66.8,60.6,100,77,67,29.91,29.76,13,3,13,0.00
2014-4-25,87.3,72.9,34.2,77.0,66.8,19.3,100,82,54,29.91,29.76,10,1,10,7.34
2014-4-26,90.1,76.0,66.7,77.2,69.1,63.7,100,80,66,29.91,29.76,13,2,13,0.00
2014-4-27,89.8,76.4,69.6,76.9,69.7,64.2,100,81,66,29.88,29.79,18,2,18,0.00
2014-4-28,90.3,80.6,73.8,77.4,72.3,68.2,98,77,66,29.82,29.71,24,5,24,0.00
2014-4-29,92.3,81.6,74.5,80.4,72.7,68.4,100,75,66,29.85,29.71,23,4,23,0.00
2014-4-30,91.8,80.9,74.5,78.8,71.4,65.9,88,73,66,29.94,29.76,24,5,24,0.00
2014-5-1,88.5,78.9,74.5,76.2,70.2,66.2,84,75,67,29.91,29.79,24,4,24,7.34
2014-5-2,80.2,76.1,72.0,75.6,72.8,68.8,100,90,75,29.82,29.74,17,3,17,1.50
2014-5-3,78.1,71.6,64.6,75.2,70.4,57.2,100,96,75,29.91,29.74,20,2,20,0.66
2014-5-4,90.0,75.8,59.0,77.1,65.7,55.5,88,71,66,29.97,29.88,13,4,14,0.00
2014-5-5,93.2,77.1,62.1,80.0,67.9,58.8,96,74,65,29.94,29.82,11,3,13,0.00
2014-5-6,80.6,69.4,65.7,69.3,61.1,56.5,87,75,67,29.91,29.82,6,0,6,0.00
2014-5-7,95.2,80.5,70.9,81.6,69.8,63.2,85,70,65,30.00,29.82,17,4,17,9.50
2014-5-8,95.0,79.7,73.4,81.4,69.2,64.1,79,70,65,30.06,29.94,13,4,17,0.00
2014-5-9,91.4,80.9,73.8,77.9,70.9,64.5,90,72,66,30.06,29.88,23,4,23,0.00
2014-5-10,92.1,81.4,73.4,79.0,70.6,0.0,81,70,66,29.97,29.88,22,5,22,0.00
2014-5-11,93.2,83.1,76.8,80.0,72.1,67.3,76,70,66,30.00,29.88,16,4,16,0.00
2014-5-12,88.3,78.2,74.5,76.0,67.7,64.3,75,70,67,29.97,29.88,20,5,20,0.00
2014-5-13,96.4,83.8,75.4,82.8,72.6,0.0,100,70,65,29.94,29.79,20,7,20,0.00
2014-5-14,96.4,81.4,73.9,82.8,72.8,69.1,89,76,65,29.91,29.79,21,6,21,0.96
2014-5-15,86.9,78.7,73.2,77.2,71.1,63.8,100,78,67,29.88,29.76,24,6,24,0.24
2014-5-16,74.1,71.0,66.4,64.3,60.9,55.9,73,70,68,29.97,29.85,18,5,18,0.00
2014-5-17,90.7,75.7,61.9,77.8,64.9,53.9,78,69,66,30.03,29.91,15,3,15,0.00
2014-5-18,91.2,76.5,63.5,78.1,65.1,53.5,72,68,66,30.03,29.91,17,4,17,0.00
2014-5-19,92.5,79.1,64.4,79.1,68.0,56.2,81,69,66,30.06,29.94,17,4,17,0.00
2014-5-20,93.7,80.2,69.3,80.2,69.4,62.1,86,70,65,30.06,29.94,18,4,18,0.00
2014-5-21,95.0,78.7,66.0,80.7,67.7,58.4,80,69,65,30.06,29.94,17,3,17,0.00
2014-5-22,91.0,79.1,67.8,78.1,68.5,60.3,79,70,66,30.03,29.91,15,3,15,0.00
2014-5-23,93.4,79.7,68.9,80.0,70.5,62.3,89,74,66,29.97,29.88,17,3,17,10.70
2014-5-24,93.9,82.1,73.0,80.2,74.0,69.6,100,78,65,29.97,29.85,13,3,13,0.00
2014-5-25,99.0,83.6,76.3,84.7,74.0,65.3,95,74,64,29.97,29.85,15,2,17,10.70
2014-5-26,97.3,82.0,72.7,82.9,71.4,64.5,86,71,64,30.03,29.91,18,3,18,0.09
2014-5-27,94.6,80.6,73.4,81.0,70.7,63.6,87,72,65,30.06,29.88,13,3,13,0.00
2014-5-28,91.6,79.6,72.7,78.1,69.8,64.5,84,72,65,29.94,29.82,16,2,16,0.00
2014-5-29,93.4,80.1,71.9,79.7,69.5,62.6,83,70,65,29.91,29.82,23,3,23,0.00
2014-5-30,92.5,79.4,72.3,78.8,69.5,63.3,83,72,65,29.88,29.79,18,3,18,0.00
2014-5-31,97.5,80.6,70.9,83.3,70.6,64.0,83,72,64,29.91,29.79,13,2,13,9.50
2014-6-1,94.6,78.7,73.0,81.0,69.0,64.3,87,73,65,29.91,29.82,18,4,18,9.54
2014-6-2,88.0,79.3,74.6,75.1,69.5,64.2,85,72,66,29.97,29.85,22,7,22,10.83
2014-6-3,88.5,79.2,73.0,75.7,67.8,23.5,70,68,66,29.94,29.82,18,5,18,0.00
2014-6-4,95.2,80.6,71.9,81.4,69.0,60.7,70,68,65,29.85,29.74,18,4,18,0.00
2014-6-5,89.2,81.8,77.3,76.4,70.9,63.0,74,70,66,29.82,29.71,15,5,15,0.00
2014-6-6,90.7,81.7,71.4,77.4,71.2,65.2,85,71,66,29.85,29.71,15,4,15,0.00
2014-6-7,90.8,81.9,73.2,77.9,71.3,65.3,85,71,66,29.91,29.74,15,4,15,0.00
2014-6-8,91.4,81.9,72.5,78.1,71.1,64.7,83,70,66,29.88,29.74,18,4,18,0.00
2014-6-9,91.0,79.2,72.7,77.8,69.4,65.0,79,72,66,29.85,29.71,13,2,13,0.08
2014-6-10,91.6,81.6,70.0,78.1,71.9,63.2,100,73,65,29.88,29.79,18,4,18,0.66
2014-6-11,90.1,80.9,72.7,77.2,71.9,65.9,100,75,66,29.85,29.79,23,5,23,0.96
2014-6-12,89.2,80.0,71.4,77.5,72.7,0.0,100,80,66,29.88,29.76,19,4,19,0.00
2014-6-13,89.9,79.4,72.8,76.7,70.1,64.0,86,73,66,29.91,29.76,24,4,24,0.29
2014-6-14,91.2,80.5,71.9,78.1,71.7,65.7,100,75,65,29.94,29.82,28,4,28,0.50
2014-6-15,93.9,80.1,71.2,80.3,72.8,63.8,100,80,65,30.00,29.88,12,3,14,0.00
2014-6-16,97.0,81.5,73.0,82.8,71.3,64.4,85,71,64,30.03,29.88,10,3,11,13.41
2014-6-17,98.0,82.4,32.2,83.6,72.0,17.4,87,71,54,30.03,29.88,15,3,15,0.00
2014-6-18,96.6,80.4,71.0,82.7,71.3,64.0,97,75,65,30.00,29.91,27,3,27,0.45
2014-6-19,97.1,83.3,70.9,82.9,75.0,67.0,100,78,64,29.97,29.88,13,3,13,14.07
2014-6-20,91.9,82.2,72.8,81.2,74.0,17.4,100,78,65,29.94,29.82,16,4,16,0.00
2014-6-21,92.5,83.3,78.1,79.0,72.2,68.4,74,69,65,29.88,29.76,14,5,14,0.00
2014-6-22,91.6,83.8,78.8,78.1,72.4,68.6,74,69,65,29.88,29.76,15,6,15,14.07
2014-6-23,91.7,83.7,79.3,78.1,72.4,68.5,73,69,65,29.94,29.76,18,5,18,0.00
2014-6-24,85.3,81.9,80.2,73.1,70.4,69.1,73,68,67,29.97,29.91,10,4,10,0.00
2014-6-25,99.5,85.1,74.3,84.5,74.1,67.7,85,70,64,30.00,29.85,17,4,17,0.00
2014-6-26,98.8,85.7,76.1,84.5,74.6,68.9,84,70,64,30.00,29.79,15,3,15,0.00
2014-6-27,99.9,85.4,75.5,84.8,52.1,0.0,86,72,63,29.97,29.85,34,3,34,0.12
2014-6-28,103.6,87.3,77.3,88.2,77.9,72.1,100,75,63,30.03,29.88,17,3,17,0.00
2014-6-29,101.1,89.3,79.2,86.0,78.0,69.2,84,70,64,30.00,29.79,20,4,20,0.04
2014-6-30,98.8,86.2,77.4,84.5,76.4,66.6,86,73,64,29.91,29.74,21,4,21,0.17
2014-7-1,99.3,87.5,77.7,85.0,77.0,71.3,85,72,64,29.82,29.68,16,4,16,0.00
2014-7-2,96.4,83.5,77.5,82.8,72.9,69.1,81,71,65,29.79,29.71,15,3,15,0.00
2014-7-3,94.6,86.4,76.6,81.1,75.6,68.3,84,71,65,29.91,29.76,22,6,22,1.24
2014-7-4,94.3,82.3,76.8,80.4,76.1,71.6,100,83,65,29.97,29.85,23,4,23,1.24
2014-7-5,97.9,86.4,76.1,86.4,76.7,69.1,100,74,65,29.97,29.88,13,3,13,0.33
2014-7-6,93.9,83.6,77.5,79.9,74.1,0.0,88,74,65,29.94,29.82,15,4,15,0.33
2014-7-7,91.6,81.9,76.5,78.3,73.8,69.9,90,77,66,29.97,29.82,10,2,10,0.33
2014-7-8,95.4,85.3,77.4,81.6,75.1,0.0,87,73,54,29.97,29.88,18,3,18,0.33
2014-7-9,90.5,80.7,77.4,80.0,73.9,69.5,96,80,66,29.97,29.88,6,2,6,0.00
2014-7-10,93.2,82.1,34.2,79.6,73.5,19.3,89,76,54,29.97,29.88,11,2,11,0.00
2014-7-11,94.5,82.2,75.9,80.7,73.9,70.1,100,77,65,29.97,29.88,11,2,11,0.09
2014-7-12,99.5,85.3,77.4,85.0,75.3,69.1,86,72,64,29.97,29.88,15,4,15,0.00
2014-7-13,96.4,87.5,77.9,82.8,76.2,70.8,84,70,65,29.97,29.85,11,4,12,0.00
2014-7-14,95.7,87.7,79.2,81.7,75.9,70.5,77,68,65,29.94,29.82,15,4,15,0.00
2014-7-15,93.6,86.9,77.9,80.0,76.1,67.4,99,71,65,29.85,29.76,18,6,18,0.37
2014-7-16,90.5,81.4,75.6,79.3,74.5,69.1,100,81,66,29.82,29.71,24,4,24,0.71
2014-7-17,94.8,85.6,76.1,80.9,75.0,68.3,86,71,65,29.85,29.74,19,6,19,0.41
2014-7-18,97.2,90.6,79.7,83.1,77.7,68.6,69,66,65,29.91,29.82,14,5,14,0.00
2014-7-19,98.2,85.8,34.2,83.9,74.8,19.3,82,70,54,29.91,29.79,15,3,15,3.32
2014-7-20,98.6,86.4,77.7,84.1,75.6,69.8,84,71,65,29.91,29.82,14,3,14,3.32
2014-7-21,101.3,86.8,78.4,86.9,75.9,69.6,79,71,64,29.94,29.79,18,4,18,0.00
2014-7-22,97.3,85.9,75.9,83.1,74.9,68.9,82,70,65,29.91,29.79,13,4,13,0.00
2014-7-23,99.3,88.0,79.3,84.6,77.1,0.0,86,71,64,29.91,29.79,13,3,13,0.00
2014-7-24,102.0,87.5,78.1,86.9,76.5,71.0,87,70,64,29.91,29.79,12,2,12,0.29
2014-7-25,95.5,87.2,79.7,81.6,75.8,70.7,77,69,65,29.91,29.82,18,3,18,0.13
2014-7-26,97.7,86.7,80.8,83.6,76.1,72.2,83,71,65,29.94,29.82,13,3,13,0.00
2014-7-27,97.0,88.4,79.7,83.3,76.7,71.5,81,69,65,29.94,29.85,13,4,14,0.00
2014-7-28,96.1,88.8,84.2,82.4,76.4,72.2,70,67,65,29.91,29.76,20,7,20,0.00
2014-7-29,93.0,86.9,84.0,79.8,75.1,72.2,73,68,66,29.82,29.74,25,8,25,3.74
2014-7-30,97.9,87.6,78.4,84.1,76.2,68.8,80,69,65,29.82,29.74,17,4,17,0.00
2014-7-31,96.6,85.2,34.2,82.9,73.2,19.3,74,68,54,29.85,29.74,18,3,18,3.74
2014-8-1,98.6,85.1,74.8,84.6,73.3,65.0,75,68,64,29.82,29.71,13,3,14,1.67
2014-8-2,100.0,87.0,77.9,85.3,75.3,67.8,85,69,64,29.79,29.71,13,3,13,0.24
2014-8-3,100.8,84.2,77.5,86.2,77.8,71.8,100,83,64,29.80,29.68,16,3,16,3.45
2014-8-4,95.5,84.8,78.6,81.6,74.4,70.2,84,71,65,29.82,29.68,14,2,14,0.67
2014-8-5,99.3,86.8,79.3,85.0,75.8,71.8,82,70,64,29.91,29.76,11,3,11,0.67
2014-8-6,95.7,89.4,82.0,82.1,76.7,71.6,74,66,65,29.88,29.79,15,4,15,0.67
2014-8-7,99.3,87.8,79.5,84.5,76.8,71.0,85,70,64,29.88,29.76,18,3,18,0.67
2014-8-8,100.6,87.7,34.2,86.0,76.4,19.3,100,70,54,29.91,29.76,13,3,13,0.67
2014-8-9,96.8,87.3,78.8,82.8,76.3,71.1,84,70,65,29.91,29.82,16,4,16,0.67
2014-8-10,96.6,86.3,80.1,82.6,75.4,0.0,75,70,65,29.91,29.82,19,4,19,5.77
2014-8-11,93.9,83.7,75.7,80.2,74.6,67.4,84,75,65,29.91,29.79,23,4,23,0.92
2014-8-12,95.4,87.5,79.2,81.2,76.4,72.1,85,70,65,29.88,29.76,20,5,20,0.67
2014-8-13,96.3,87.1,80.6,82.6,76.1,71.8,77,70,65,29.88,29.76,13,3,13,0.67
2014-8-14,95.7,86.6,78.6,81.9,75.6,70.2,84,70,65,29.91,29.76,21,3,21,0.67
2014-8-15,85.3,80.7,75.2,79.3,73.9,70.2,100,80,73,29.91,29.79,18,4,18,1.24
2014-8-16,95.9,84.8,77.0,82.2,75.6,72.2,87,74,65,29.94,29.82,11,2,16,0.00
2014-8-17,97.9,86.9,79.3,83.8,76.9,71.4,89,73,65,29.97,29.88,13,3,13,0.00
2014-8-18,95.9,84.8,32.2,83.0,75.7,18.2,88,75,56,29.94,29.82,15,3,15,0.04
2014-8-19,96.4,83.1,75.9,83.7,74.5,69.6,88,76,67,29.91,29.79,12,2,12,0.00
2014-8-20,98.0,85.7,75.4,84.7,76.1,69.8,88,74,66,29.94,29.82,17,3,17,0.00
2014-8-21,101.3,83.0,71.6,86.6,73.3,61.3,87,73,65,30.00,29.88,24,3,24,0.00
2014-8-22,95.2,78.8,24.8,81.2,68.6,0.0,100,72,56,29.94,29.82,13,3,13,0.00
2014-8-23,94.5,77.0,69.6,80.9,68.5,61.3,87,75,65,29.85,29.71,22,2,22,0.04
2014-8-24,94.8,80.5,70.7,81.2,71.7,63.3,88,76,65,29.74,29.59,19,3,19,0.00
2014-8-25,89.8,78.1,71.1,76.8,69.4,63.6,87,75,67,29.71,29.59,20,7,20,0.04
2014-8-26,89.1,77.2,68.2,76.7,68.3,63.2,88,75,67,29.79,29.68,14,6,15,0.00
2014-8-27,93.6,78.0,68.5,80.0,68.1,62.2,85,72,65,29.85,29.74,17,5,17,0.04
2014-8-28,94.3,79.7,69.1,80.5,70.7,64.6,87,75,65,29.85,29.74,15,4,15,0.09
2014-8-29,87.6,75.0,71.1,75.1,68.0,63.7,87,79,67,29.94,29.79,20,3,20,0.09
2014-8-30,93.4,77.0,66.6,79.8,69.3,0.0,100,78,66,29.97,29.82,41,3,41,1.08
2014-8-31,93.0,77.1,68.7,80.0,70.6,62.0,100,82,66,30.00,29.85,22,3,29,1.17
2014-9-1,91.8,76.4,68.7,78.8,67.8,63.0,88,75,66,29.97,29.85,11,2,14,0.00
2014-9-2,91.8,76.8,70.0,78.8,68.3,0.0,100,76,66,29.94,29.79,14,3,14,0.08
2014-9-3,91.6,75.6,65.3,78.4,69.2,61.3,100,82,66,29.91,29.76,24,3,24,1.54
2014-9-4,74.5,70.0,68.0,72.0,67.7,65.1,100,93,75,29.97,29.82,9,2,9,0.00
2014-9-5,88.9,75.1,69.3,76.5,67.8,63.3,90,79,67,30.00,29.85,13,2,13,0.00
2014-9-6,89.6,75.8,67.6,76.5,67.6,62.5,89,76,67,29.91,29.79,17,3,17,0.00
2014-9-7,76.1,70.2,68.2,65.2,64.1,62.6,88,81,69,29.85,29.79,15,2,15,0.29
2014-9-8,81.3,73.8,68.0,71.0,66.5,11.7,88,78,71,29.91,29.82,12,3,12,0.00
2014-9-9,88.5,73.5,67.8,76.0,66.5,61.0,87,79,67,29.94,29.82,22,3,22,1.83
2014-9-10,90.1,76.9,67.3,77.1,69.2,63.9,100,78,66,29.91,29.76,20,3,20,0.00
2014-9-11,92.7,76.6,68.4,79.6,68.6,0.0,100,77,66,29.91,29.76,16,3,16,0.70
2014-9-12,69.8,69.0,68.2,66.4,65.8,65.1,91,90,88,29.85,29.82,1,0,1,0.00
2014-9-13,90.3,75.8,68.5,77.4,67.8,62.8,86,77,66,29.94,29.79,13,5,14,14.07
2014-9-14,86.7,73.9,67.6,73.9,66.8,62.3,89,79,67,30.00,29.88,28,4,28,14.07
2014-9-15,88.3,75.3,66.6,76.0,68.7,63.9,100,81,67,30.06,29.94,13,2,13,14.07
2014-9-16,90.3,74.4,68.2,77.0,67.3,63.1,96,79,66,29.97,29.82,21,3,21,14.07
2014-9-17,77.9,70.0,65.5,70.7,66.2,62.7,100,88,74,29.85,29.71,26,3,26,14.07
2014-9-18,94.6,81.3,71.0,82.0,74.5,70.3,100,81,67,29.82,29.71,11,3,12,14.07
2014-9-19,81.1,76.3,69.2,76.4,72.3,69.2,100,88,76,29.85,29.71,12,3,12,14.07
2014-9-20,91.9,76.8,70.1,79.4,71.7,67.9,100,86,67,29.82,29.71,57,2,57,14.07
2014-9-21,96.2,80.7,71.9,83.3,73.2,69.1,100,79,67,29.88,29.76,13,2,13,14.07
2014-9-22,84.9,76.1,70.5,81.4,72.9,66.1,100,90,75,29.91,29.82,16,2,16,14.07
2014-9-23,84.2,76.7,72.5,75.4,72.4,69.3,100,87,75,29.91,29.79,10,1,11,14.07
2014-9-24,93.0,79.3,71.9,80.1,72.4,68.8,100,80,67,29.97,29.85,13,4,13,14.07
2014-9-25,91.6,78.5,71.4,80.4,72.1,68.0,91,81,68,29.97,29.82,20,4,20,14.07
2014-9-26,82.4,75.1,73.2,75.4,72.5,69.6,100,92,75,29.88,29.82,15,4,16,14.07
2014-9-27,95.9,79.2,71.9,83.2,75.4,68.4,100,90,67,29.91,29.79,22,2,22,14.07
2014-9-28,96.8,80.3,73.0,83.7,76.2,69.1,100,89,66,29.91,29.76,16,2,16,14.07
2014-9-29,90.3,78.4,74.1,81.3,76.0,71.9,100,93,73,29.82,29.71,21,2,21,14.07
2014-9-30,90.7,81.2,75.0,80.8,76.1,72.1,100,85,73,29.79,29.65,18,2,18,0.29
2014-10-1,91.7,81.3,75.7,81.4,76.4,72.2,100,86,70,29.85,29.65,15,3,15,0.00
2014-10-2,94.8,82.0,75.5,84.2,75.6,71.0,99,82,70,29.94,29.82,12,2,12,0.00
2014-10-3,92.8,81.7,75.5,82.1,76.0,71.4,100,84,70,29.91,29.79,19,3,19,0.08
2014-10-4,88.3,76.7,70.7,80.6,71.4,61.2,100,84,71,29.82,29.71,20,4,20,1.20
2014-10-5,82.2,68.8,57.7,71.0,59.1,49.1,76,71,68,29.91,29.76,17,4,17,0.00
2014-10-6,85.6,71.7,58.8,73.9,62.9,51.1,85,74,69,29.94,29.82,13,2,13,0.00
2014-10-7,89.4,78.9,70.9,78.6,70.0,63.7,80,75,70,29.94,29.71,15,4,15,0.00
2014-10-8,97.5,79.9,70.1,84.2,71.8,65.8,89,77,66,30.00,29.88,12,2,12,14.24
2014-10-9,93.7,81.0,70.7,81.1,72.5,67.0,91,76,67,29.97,29.82,13,3,13,0.00
2014-10-10,93.7,81.4,70.5,80.9,72.6,67.2,97,75,67,29.94,29.82,15,4,15,0.00
2014-10-11,96.6,81.0,71.0,83.7,71.9,66.7,89,74,67,29.91,29.82,13,3,13,0.00
2014-10-12,93.7,80.6,70.5,80.8,71.8,65.3,89,75,67,29.91,29.82,19,3,19,0.00
2014-10-13,92.6,79.5,73.9,80.1,71.2,66.6,85,76,67,29.94,29.82,12,3,18,0.00
2014-10-14,86.7,76.9,72.1,76.4,72.0,66.2,100,85,74,29.88,29.76,26,4,26,1.83
2014-10-15,86.9,75.8,65.1,79.7,70.5,57.8,100,85,69,29.85,29.76,14,2,14,16.44
2014-10-16,66.5,64.8,64.0,62.3,60.4,58.8,89,86,81,29.82,29.79,3,0,3,0.00
2014-10-17,89.4,71.1,59.7,77.4,62.5,54.1,83,75,68,29.88,29.76,14,2,14,0.00
2014-10-18,87.4,71.2,58.1,76.0,63.5,53.9,91,77,69,29.88,29.76,13,2,13,0.00
2014-10-19,91.2,73.9,62.0,78.8,66.4,59.3,100,78,67,29.91,29.82,12,2,12,16.44
2014-10-20,92.6,76.3,65.6,79.7,67.7,60.5,97,75,67,29.91,29.76,10,2,10,0.00
2014-10-21,91.4,75.5,68.3,78.9,66.4,60.5,79,74,67,29.82,29.76,7,1,7,0.00
2014-10-22,91.7,75.9,67.8,79.0,67.4,61.0,89,75,67,29.85,29.76,14,3,14,0.00
2014-10-23,87.4,73.0,63.8,75.7,63.2,55.2,75,71,69,29.85,29.74,19,5,19,0.00
2014-10-24,84.7,70.4,61.0,73.4,61.3,53.0,81,73,69,29.85,29.71,15,5,15,16.44
2014-10-25,83.6,68.5,57.0,72.2,60.1,52.5,89,75,68,29.88,29.76,15,3,15,0.00
2014-10-26,87.6,69.1,55.6,76.0,61.3,51.8,91,77,69,29.88,29.79,13,2,13,0.00
2014-10-27,88.9,70.4,57.9,76.9,62.4,52.3,100,76,68,29.97,29.82,12,2,12,16.48
2014-10-28,90.3,75.2,63.5,78.3,67.2,57.9,100,77,68,30.03,29.91,13,3,13,19.50
2014-10-29,88.3,75.0,65.1,76.4,67.4,60.7,91,78,68,29.97,29.82,15,2,15,17.44
2014-10-30,87.6,74.7,68.2,76.0,67.7,63.6,92,79,68,29.85,29.71,10,1,10,17.44
2014-10-31,76.4,69.9,64.4,67.0,61.9,54.8,88,76,70,29.79,21.73,20,5,20,16.48
2014-11-1,68.5,62.4,53.0,59.2,53.2,45.0,74,72,70,31.18,29.71,26,9,26,16.48
2014-11-2,67.8,54.8,46.0,57.9,46.5,38.5,82,73,70,30.15,30.00,13,4,13,16.48
2014-11-3,76.4,58.7,43.3,66.3,50.4,36.9,83,74,69,30.21,30.09,13,3,13,16.48
2014-11-4,83.1,67.6,55.7,71.9,59.5,50.2,91,76,69,30.18,30.03,16,3,16,16.48
2014-11-5,86.7,72.2,61.5,75.3,64.0,55.8,89,76,69,30.12,29.94,13,2,13,16.44
2014-11-6,86.3,72.5,63.7,75.0,65.1,58.8,89,78,69,30.03,29.85,12,2,12,0.00
2014-11-7,81.5,68.8,55.6,70.6,62.8,48.8,90,82,69,29.85,29.76,13,2,13,0.00
2014-11-8,78.4,61.5,53.0,68.2,55.3,48.0,100,81,71,29.85,29.74,10,2,129,0.42
2014-11-9,70.7,61.6,57.0,61.2,58.0,54.7,100,88,72,29.82,29.71,9,3,9,0.63
2014-11-10,79.3,64.7,56.1,68.7,59.3,55.4,100,83,70,29.88,29.79,15,3,125,0.63
2014-11-11,76.3,64.6,55.9,66.4,58.4,49.5,100,81,69,29.85,29.76,15,4,15,0.63
2014-11-12,81.8,65.2,53.6,71.1,58.5,50.7,100,80,68,29.94,29.82,10,2,10,0.63
2014-11-13,84.0,63.8,54.7,72.7,59.2,53.0,100,86,69,29.94,29.82,11,1,11,0.00
2014-11-14,68.2,62.4,53.4,64.6,55.8,46.0,91,79,70,30.03,29.85,15,6,17,0.63
2014-11-15,79.7,61.5,50.5,68.7,54.2,45.5,89,77,69,30.09,29.97,12,4,12,0.00
2014-11-16,84.0,69.1,58.4,72.7,63.7,57.0,100,84,69,30.06,29.88,18,3,18,0.00
2014-11-17,78.6,69.8,65.6,73.8,68.5,64.4,100,96,77,29.94,29.76,26,4,26,0.83
2014-11-18,65.3,51.4,44.6,65.3,44.7,37.2,100,78,73,30.18,29.88,17,6,17,0.00
2014-11-19,59.2,45.7,39.2,50.2,38.4,32.6,77,76,72,30.21,30.09,15,5,15,0.00
2014-11-20,67.3,53.8,44.2,57.5,46.0,37.8,83,75,71,30.15,29.97,15,5,15,0.00
2014-11-21,74.1,63.1,53.9,63.9,53.8,45.5,74,72,69,30.09,30.00,20,6,20,1.46
2014-11-22,64.0,62.9,61.1,61.0,58.1,53.5,93,85,74,30.09,30.00,13,5,13,0.04
2014-11-23,82.2,74.8,70.1,73.4,70.5,66.4,100,87,72,29.91,29.71,30,8,36,0.00
2014-11-24,82.7,75.4,71.8,76.8,72.3,69.8,100,91,74,29.94,29.82,23,6,23,0.00
2014-11-25,75.5,72.8,70.5,75.6,72.8,70.5,100,100,100,29.91,29.76,28,5,28,1.74
2014-11-26,71.2,57.6,44.9,71.2,53.7,41.0,100,87,72,30.09,29.74,22,6,24,0.21
2014-11-27,73.0,55.1,32.2,63.5,50.2,18.2,100,85,56,30.12,30.00,20,3,20,3.45
2014-11-28,63.5,51.5,42.6,53.9,43.7,35.4,83,75,71,30.15,30.03,23,5,23,0.00
2014-11-29,74.1,58.7,47.1,64.1,52.1,42.8,93,79,70,30.09,30.00,11,3,11,0.00
2014-11-30,80.0,65.9,54.7,69.4,59.7,53.0,100,81,70,30.15,30.03,13,3,13,0.00
2014-12-1,81.7,68.3,59.0,70.9,62.2,56.7,100,81,70,30.15,30.00,17,4,17,0.00
2014-12-2,80.9,70.4,63.7,70.8,65.4,62.1,100,85,72,30.09,29.97,18,4,18,0.00
2014-12-3,72.5,66.4,63.1,64.8,62.7,59.0,100,89,72,30.03,29.97,10,2,10,19.72
2014-12-4,83.1,71.0,62.0,71.5,64.6,59.1,100,81,69,30.03,29.94,15,4,15,19.72
2014-12-5,78.8,71.2,65.3,69.4,65.0,62.5,100,81,73,30.06,30.00,14,4,14,0.00
2014-12-6,84.5,71.8,65.5,74.5,67.3,62.6,100,87,72,30.06,29.94,12,3,12,0.00
2014-12-7,69.1,64.3,58.3,67.3,61.8,53.7,100,92,79,29.97,29.88,12,4,12,0.00
2014-12-8,64.7,60.8,57.5,62.9,58.9,55.5,100,94,83,29.97,29.88,11,3,11,0.04
2014-12-9,63.1,56.9,53.0,57.2,52.1,45.7,100,85,74,29.97,29.88,18,6,18,0.00
2014-12-10,68.7,53.5,42.2,58.4,46.5,36.1,90,78,70,30.06,29.91,15,2,15,2.03
2014-12-11,67.6,50.8,45.3,58.7,47.1,42.0,100,88,71,30.03,29.91,18,1,18,3.49
2014-12-12,61.0,52.1,44.2,51.9,45.2,37.8,90,77,72,30.12,30.00,7,1,7,0.00
2014-12-13,71.6,52.8,40.4,60.9,46.1,36.7,94,78,69,30.03,29.88,10,2,10,0.00
2014-12-14,75.0,53.9,40.8,64.0,47.4,38.2,95,79,69,29.94,29.85,14,2,14,0.00
2014-12-15,74.6,55.6,40.6,64.6,50.2,37.6,98,83,71,29.97,29.82,10,1,10,0.00
2014-12-16,72.1,57.9,46.0,68.9,54.1,44.5,100,88,72,30.03,29.94,16,2,16,0.00
2014-12-17,78.4,64.8,50.9,68.2,56.8,44.8,89,76,70,30.06,29.94,10,3,10,0.00
2014-12-18,72.5,57.5,46.4,63.0,52.2,43.9,100,83,72,30.03,29.91,9,2,10,3.49
2014-12-19,77.0,60.4,48.4,65.8,54.2,46.9,100,81,68,29.97,29.82,7,1,7,0.00
2014-12-20,79.0,65.9,55.7,68.3,59.0,49.1,100,79,70,29.94,29.82,15,2,15,3.49
2014-12-21,79.3,68.8,62.4,69.1,63.2,56.2,100,83,70,29.91,29.82,21,3,21,3.58
2014-12-22,76.1,70.6,66.9,71.0,68.2,66.3,100,93,77,29.85,29.71,29,5,29,0.03
2014-12-23,79.9,73.6,69.4,72.1,69.1,0.0,100,86,73,29.79,29.68,26,7,26,0.00
2014-12-24,77.7,70.8,65.8,70.9,66.6,59.3,100,87,78,29.85,29.68,33,7,34,0.38
2014-12-25,66.9,61.4,54.3,60.7,54.0,47.8,84,77,73,30.09,29.82,15,4,15,0.00
2014-12-26,77.0,64.5,54.5,66.9,56.7,49.5,85,76,70,30.09,29.97,8,3,10,0.00
2014-12-27,84.2,70.2,62.2,72.9,62.8,56.0,87,78,69,30.09,29.97,12,2,12,0.00
2014-12-28,80.0,70.8,63.7,73.8,65.2,60.7,100,83,70,30.03,29.94,12,2,13,0.00
2014-12-29,78.6,70.7,62.8,71.9,67.3,62.8,100,90,73,30.00,29.88,18,3,18,3.99
2014-12-30,70.5,68.7,66.7,70.3,68.0,65.5,100,98,88,30.09,29.94,12,3,12,4.24
2014-12-31,66.9,63.7,60.8,66.9,58.9,55.8,100,85,78,30.15,30.03,16,6,16,0.00
2015-1-1,75.5,65.3,59.7,65.5,59.6,55.1,100,82,71,30.15,30.00,11,3,11,0.00
2015-1-2,81.1,68.7,63.7,70.4,65.1,61.0,100,89,70,30.15,30.00,12,3,172,4.24